GW4246 Weather Reports


time (UTC)temp
C
wind
direction
speed
KPH
gust
KPH
rain 1hr
cm
rain 24hr
cm
rain mn
cm
humidity
%
barometer
mb
20260503181021 15 181 6.4 12.9 0.00 0.00 0.00 73 1012.4
20260503180016 13 77 1.6 6.4 0.00 0.00 0.00 76 1012.5
20260503175019 13 161 1.6 4.8 0.00 0.00 0.00 80 1012.6
20260503174022 13 119 0.0 4.8 0.00 0.00 0.00 80 1012.4
20260503173018 13 175 3.2 8.0 0.00 0.00 0.00 80 1012.4
20260503172020 12 198 4.8 9.7 0.00 0.00 0.00 82 1012.2
20260503171016 12 191 6.4 11.3 0.00 0.00 0.00 82 1012.2
20260503131016 11 86 1.6 4.8 0.00 0.00 0.00 92 1010.0
20260503081022 11 196 3.2 6.4 0.00 0.00 0.00 90 1010.8
20260503072021 11 159 1.6 3.2 0.00 0.00 0.00 90 1010.9
20260503071016 11 203 0.0 3.2 0.00 0.00 0.00 90 1010.9
20260503055017 11 194 4.8 6.4 0.00 0.00 0.00 89 1011.4
20260503054040 11 194 4.8 6.4 0.00 0.00 0.00 89 1011.4
20260503053103 11 179 4.8 6.4 0.00 0.00 0.00 89 1011.4
20260503052038 11 193 1.6 8.0 0.00 0.00 0.00 89 1011.4
20260503051041 11 202 3.2 6.4 0.00 0.00 0.00 89 1011.6
20260503050036 11 203 4.8 8.0 0.00 0.00 0.00 88 1011.5
20260503045019 11 177 3.2 6.4 0.00 0.00 0.00 88 1011.5
20260503044023 11 193 3.2 6.4 0.00 0.00 0.00 88 1011.3
20260503043018 11 193 4.8 6.4 0.00 0.00 0.00 88 1011.3
20260503042020 11 198 3.2 6.4 0.00 0.00 0.00 88 1011.3
20260503041022 11 189 4.8 8.0 0.00 0.00 0.00 87 1011.2
20260503040017 11 193 4.8 6.4 0.00 0.00 0.00 87 1011.1
20260503035018 11 191 1.6 4.8 0.00 0.00 0.00 86 1011.0
20260503034020 11 175 1.6 4.8 0.00 0.00 0.00 86 1010.9
20260503033022 11 194 1.6 6.4 0.00 0.00 0.00 85 1010.7
20260503032016 11 165 0.0 4.8 0.00 0.00 0.00 85 1010.6
20260503031019 11 170 1.6 6.4 0.00 0.00 0.00 85 1010.6
20260503030021 11 187 3.2 9.7 0.00 0.00 0.00 85 1010.7
20260503025023 12 187 0.0 6.4 0.00 0.00 0.00 85 1010.7
20260503024018 12 156 1.6 6.4 0.00 0.00 0.00 85 1010.7
20260503023020 12 127 1.6 6.4 0.00 0.00 0.00 84 1010.7
20260503022023 12 172 3.2 8.0 0.00 0.00 0.00 84 1010.8
20260503021017 12 145 1.6 6.4 0.00 0.00 0.00 83 1010.8
20260503020039 12 28 1.6 4.8 0.00 0.00 0.00 82 1010.8
20260503015022 12 110 1.6 6.4 0.00 0.00 0.00 82 1011.0
20260503014016 12 199 6.4 12.9 0.00 0.00 0.00 82 1010.9
20260503013018 12 150 1.6 6.4 0.00 0.00 0.00 82 1011.0
20260503012040 12 195 3.2 12.9 0.00 0.00 0.00 81 1011.1
20260503011042 12 160 3.2 6.4 0.00 0.00 0.00 82 1011.1
20260503010016 12 193 4.8 9.7 0.00 0.00 0.00 81 1011.1
20260503005018 12 207 6.4 14.5 0.00 0.00 0.00 81 1011.2
20260503004019 12 176 3.2 11.3 0.00 0.00 0.00 81 1011.1
20260503003022 13 190 4.8 12.9 0.00 0.00 0.00 80 1011.2
20260503002016 13 189 4.8 14.5 0.00 0.00 0.00 79 1011.1
20260503001018 13 117 1.6 6.4 0.00 0.00 0.00 78 1011.3
20260503000042 13 56 1.6 6.4 0.00 0.00 0.00 79 1011.3
20260502235022 13 171 3.2 11.3 0.00 0.00 0.00 78 1011.4
20260502234016 14 182 1.6 9.7 0.00 0.00 0.00 77 1011.3
20260502233017 14 183 3.2 12.9 0.00 0.00 0.00 77 1011.4
20260502232019 14 186 4.8 12.9 0.00 0.00 0.00 76 1011.4
20260502231021 14 196 9.7 17.7 0.00 0.00 0.00 77 1011.5
20260502230016 14 196 9.7 19.3 0.00 0.00 0.00 76 1011.6
20260502225018 13 205 8.0 16.1 0.00 0.00 0.00 77 1011.7
20260502224020 14 193 6.4 16.1 0.00 0.00 0.00 77 1011.8
20260502223021 13 204 8.0 22.5 0.00 0.00 0.00 78 1011.9
20260502222041 13 202 9.7 17.7 0.00 0.00 0.00 79 1012.0
20260502221022 13 204 9.7 20.9 0.00 0.00 0.00 79 1012.1
20260502220015 13 201 9.7 20.9 0.00 0.00 0.00 79 1012.1
20260502215036 13 202 9.7 19.3 0.00 0.00 0.00 79 1012.3
20260502214059 13 188 4.8 12.9 0.00 0.00 0.00 81 1012.2
20260502213022 13 197 4.8 19.3 0.00 0.00 0.00 83 1012.2
20260502212017 13 197 3.2 14.5 0.00 0.00 0.00 82 1012.3
20260502211020 13 191 8.0 16.1 0.00 0.00 0.00 81 1012.5
20260502210023 13 184 6.4 11.3 0.00 0.00 0.00 83 1012.5
20260502205018 13 192 9.7 14.5 0.00 0.00 0.00 83 1012.5
20260502204022 13 189 4.8 12.9 0.00 0.00 0.00 83 1012.6
20260502203016 13 187 4.8 9.7 0.00 0.00 0.00 84 1012.7
20260502202019 12 203 8.0 14.5 0.00 0.00 0.00 85 1012.8
20260502201022 13 192 4.8 11.3 0.00 0.00 0.00 84 1012.8
20260502200017 13 183 4.8 9.7 0.00 0.00 0.00 85 1012.9
20260502195021 13 195 6.4 11.3 0.00 0.00 0.00 84 1012.8
20260502194035 13 195 6.4 11.3 0.00 0.00 0.00 84 1012.8
20260502193018 13 189 8.0 12.9 0.00 0.00 0.00 84 1012.8
20260502192021 13 205 6.4 9.7 0.00 0.00 0.00 84 1013.1
20260502191017 13 193 6.4 11.3 0.00 0.00 0.00 84 1012.9
20260502190020 13 197 4.8 9.7 0.00 0.00 0.00 82 1012.9
20260502185023 13 194 6.4 14.5 0.00 0.00 0.00 81 1012.9
20260502184017 13 196 6.4 9.7 0.00 0.00 0.00 82 1012.9
20260502182016 12 156 4.8 8.0 0.00 0.00 0.00 84 1012.8